Flag for Turkey Weather past 2 weeks in Gaziantep, Turkey

Now
79 °F

Clear.


Feels Like: 78 °F
Forecast: 66 / 95 °F
Wind: 6 mph from Northwest

Location: Gaziantep Airport

Current Time: Aug 31, 2014 at 7:29:41 AM

Latest Report: Aug 31, 2014 at 6:50 AM


Visibility: 10 mi

Pressure: 29.83 "Hg

Humidity: 26%

Dew point: 41 °F

Location of GaziantepLocation

Historic Weather in Gaziantep — Graph

°F

Gaziantep temperature yesterday

Maximum temperature yesterday: 100 °F (at 1:20 PM)
Minimum temperature yesterday: 72 °F (at 5:20 AM)
Average temperature yesterday: 88 °F

Past Weeks' High & Low Weather Summary

 TemperatureHumidityPressure
High106 °F (Aug 16, 2:50 PM)83% (Aug 29, 5:50 AM)29.95 "Hg (Aug 29, 5:50 AM)
Low55 °F (Aug 21, 5:50 AM)7% (Aug 27, 1:20 PM)29.59 "Hg (Aug 17, 3:50 PM)
Average87 °F31%29.78 "Hg
* Reported Aug 16 6:20 AM — Aug 31 6:20 AM, Gaziantep, Weather by CustomWeather, © 2014

Note: Actual official high and low records may vary slightly from our data, if they occured in-between our weather recording intervals... More about our weather records

Advertising

Gaziantep weather history for previous 24 hours

 ConditionsComfort  
Time TempWeatherWind HumidityBarometerVisibility
6:20 AM
Aug 31
75 °FClear.5 mph31%29.83 "Hg10 mi
5:50 AM77 °FPassing clouds.5 mph30%29.80 "HgN/A
5:20 AM77 °FClear.No wind30%29.80 "Hg10 mi
4:50 AM81 °FClear.8 mph28%29.80 "Hg10 mi
4:20 AM81 °FClear.8 mph26%29.80 "Hg10 mi
3:50 AM82 °FClear.10 mph26%29.80 "Hg10 mi
1:50 AM84 °FClear.12 mph29%29.80 "Hg10 mi
1:20 AM84 °FPassing clouds.6 mph31%29.80 "HgN/A
12:50 AM84 °FClear.10 mph33%29.83 "Hg10 mi
12:20 AM84 °FClear.12 mph33%29.83 "Hg10 mi
11:50 PM
Aug 30
77 °FClear.5 mph51%29.83 "Hg10 mi
11:20 PM82 °FClear.6 mph40%29.83 "Hg10 mi
10:50 PM79 °FClear.5 mph51%29.83 "Hg10 mi
10:20 PM86 °FClear.5 mph35%29.83 "Hg10 mi
9:50 PM88 °FClear.9 mph35%29.83 "Hg10 mi
8:50 PM90 °FClear.8 mph29%29.83 "Hg10 mi
8:20 PM88 °FClear.7 mph31%29.80 "Hg10 mi
7:50 PM93 °FSunny.8 mph24%29.80 "Hg10 mi
7:20 PM93 °FSunny.15 mph26%29.77 "Hg10 mi
6:50 PM95 °FSunny.7 mph12%29.77 "Hg10 mi
6:20 PM99 °FSunny.13 mph10%29.77 "Hg10 mi
5:50 PM99 °FSunny.12 mph10%29.77 "Hg10 mi
5:20 PM100 °FPassing clouds.14 mph9%29.77 "HgN/A
4:50 PM100 °FSunny.13 mph9%29.77 "Hg10 mi
4:20 PM100 °FSunny.14 mph10%29.77 "Hg10 mi
3:50 PM100 °FPassing clouds.14 mph8%29.77 "HgN/A
3:20 PM100 °FSunny.15 mph10%29.77 "Hg10 mi
2:50 PM100 °FSunny.18 mph9%29.80 "Hg10 mi
2:20 PM100 °FPassing clouds.9 mph9%29.80 "HgN/A
1:50 PM100 °FPassing clouds.10 mph11%29.80 "HgN/A
1:20 PM100 °FPassing clouds.10 mph10%29.80 "HgN/A
12:50 PM99 °FPassing clouds.12 mph10%29.83 "HgN/A
12:20 PM99 °FPassing clouds.12 mph11%29.83 "HgN/A
11:50 AM99 °FSunny.13 mph14%29.83 "Hg10 mi
11:20 AM97 °FPassing clouds.16 mph13%29.83 "HgN/A
10:50 AM97 °FSunny.20 mph13%29.83 "Hg10 mi
10:20 AM95 °FSunny.16 mph13%29.83 "Hg10 mi
9:50 AM95 °FSunny.15 mph16%29.83 "Hg10 mi
9:20 AM91 °FSunny.15 mph21%29.83 "Hg10 mi
8:50 AM90 °FSunny.16 mph22%29.83 "Hg10 mi
8:20 AM88 °FPassing clouds.7 mph27%29.83 "HgN/A
7:50 AM86 °FPassing clouds.6 mph31%29.83 "HgN/A
7:20 AM77 °FSunny.No wind51%29.83 "Hg10 mi
Weather by CustomWeather, © 2014

See weather overviewHow to use our weather pages